Regional Weather Roundup
Issued by NWS

Home | Current Version | Previous Version | Text Only | Print | Product List | Glossary Off
Versions: 1 2 3 4 5 6 7 8 9 10 11 12 13 14 15 16 17 18 19 20 21 22 23 24 25 26 27 28 29 30 31 32 33 34 35 36 37 38 39 40 41 42 43 44 45 46 47 48 49 50

000
ASUS43 KLOT 031821
RWRIL

ILLINOIS REGIONAL WEATHER ROUNDUP
NATIONAL WEATHER SERVICE CHICAGO/ROMEOVILLE IL
100 PM CDT SUN MAY 03 2015

NOTE: "FAIR" INDICATES FEW OR NO CLOUDS BELOW 12,000 FEET WITH NO
SIGNIFICANT WEATHER AND/OR OBSTRUCTIONS TO VISIBILITY.

* THESE STATIONS ARE NOT UNDER NWS QUALITY CONTROL. THEY ALSO MAY NOT
  REPORT WEATHER SUCH AS PRECIPITATION OR FOG.

ILZ001-002-007-009-015-016-024-031900-
NORTHWEST ILLINOIS

CITY           SKY/WX    TMP DP  RH WIND       PRES   REMARKS
MOLINE         CLOUDY    75  55  49 S9        29.88R
6HR MIN TEMP:  59; 6HR MAX TEMP:  76; 6HR PCP: TRACE;

STERLING*      CLOUDY    72  57  60 SE12      29.92S
SAVANNA*       CLOUDY    64  59  83 E5        29.93F THUNDER
$$

ILZ003-004-008-010-011-017-018-031900-
NORTH CENTRAL ILLINOIS

CITY           SKY/WX    TMP DP  RH WIND       PRES   REMARKS
ROCKFORD       LGT RAIN  65  58  78 S14       29.93F
6HR MIN TEMP:  59; 6HR MAX TEMP:  74; 6HR PCP:  0.01;

FREEPORT*      TSTM      62  55  79 SW14G21   29.97R
ROCHELLE*      CLOUDY    63  59  86 SE16      29.94F THUNDER
DE KALB*       TSTM      59  55  86 S12       29.97F
PERU*          PTSUNNY   81  48  31 S16G25    29.92F HX  80
$$

ILZ005-006-012>014-019>023-031900-
NORTHEAST ILLINOIS

CITY           SKY/WX    TMP DP  RH WIND       PRES   REMARKS
CHICAGO-OHARE  PTSUNNY   77  46  33 SW13G28   29.94F
6HR MIN TEMP:  57; 6HR MAX TEMP:  78;

CHICAGO-MIDWAY PTSUNNY   81  43  26 SW23G31   29.96F
6HR MIN TEMP:  61; 6HR MAX TEMP:  82;

AURORA         CLOUDY    69  50  50 SW5       29.97F
6HR MIN TEMP:  58; 6HR MAX TEMP:  73;

LANSING*       CLOUDY    78  40  25 SW20G28   29.98F
JOLIET*        PTSUNNY   78  48  34 SW8G16    29.96F
WAUKEGAN       PTSUNNY   77  50  38 S18G26    29.93F
6HR MIN TEMP:  57; 6HR MAX TEMP:  78;

DUPAGE AIRPORT LGT RAIN  66  54  65 SW9       29.96F
6HR MIN TEMP:  56; 6HR MAX TEMP:  76; 6HR PCP: TRACE;

KANKAKEE*      MOSUNNY   81  50  33 S17G23    29.97F HX  80
WHEELING       PTSUNNY   77  47  34 SW16G23   29.95F
6HR MIN TEMP:  55; 6HR MAX TEMP:  78;

MORRIS*        CLOUDY    77  47  33 SW14      29.94F
ROMEOVILLE*    PTSUNNY   76  43  31 SW9       29.96F
NORTHERLY ISL    N/A     77  39  25 SW21        N/A
$$

LMZ740>746-031900-
SOUTHERN LAKE MICHIGAN

STATION/POSITION SKY/WX   TEMP    WIND        PRES    VSBY  WAVE
                          AIR SEA DIR/SP/G                  HT/PER
                          (F)     (DEG/KT/KT) (MB)    (MI)  (FT/S)
HARRISON CRIB              71     200/ 21/ 25   N/A
BURNHAM HARBOR             78     190/ 18       N/A
CALUMET HARBOR             74     210/ 13/ 18   N/A
BURNS HARBOR               73     220/ 16/ 25 1015.9F
MICHIGAN CITY              74     200/ 19/ 23   N/A
MICHIGAN CITY 6N           64 50  240/ 12/ 14   N/A           1/ 3
ST. JOSEPH                 57 49  270/  6/  6   N/A           1
$$

ILZ025>027-034>036-040-047-049-050-058-095>099-031900-
WEST-CENTRAL ILLINOIS

CITY           SKY/WX    TMP DP  RH WIND       PRES   REMARKS
QUINCY         SUNNY     80  55  42 S18       29.92F HX  80
GALESBURG*     PTSUNNY   78  56  46 S22G30    29.89F
MACOMB*        MOSUNNY   80  53  38 S16G24    29.94R HX  80
JACKSONVILLE*  MOSUNNY   83  51  33 S13G22    29.95F HX  81
PITTSFIELD*    SUNNY     81  54  39 S13       29.96F HX  80
$$

ILZ028>032-037-038-041>044-048-051>054-059>061-031900-
CENTRAL ILLINOIS

CITY           SKY/WX    TMP DP  RH WIND       PRES   REMARKS
PONTIAC        MOSUNNY   83  49  30 SW14G25   29.96F HX  81
BLOOMINGTON    MOSUNNY   79  51  37 SW18G30   29.98F
DECATUR        SUNNY     80  45  28 S17G26    29.99F
PEORIA         PTSUNNY   81  51  35 SW18G26   29.91F HX  80
6HR MIN TEMP:  61; 6HR MAX TEMP:  82;

LACON*         PTSUNNY   77  50  38 S15G22    29.91F
LINCOLN*       SUNNY     83  49  29 S13G24    29.94F HX  81
SPRINGFIELD    MOSUNNY   83  51  33 S12G22    29.96F HX  81
6HR MIN TEMP:  62; 6HR MAX TEMP:  83;

TAYLORVILLE    MOSUNNY   79  46  31 S14G20    29.99F
$$

ILZ033-039-045-046-055>057-062-063-031900-
EAST-CENTRAL ILLINOIS

CITY           SKY/WX    TMP DP  RH WIND       PRES   REMARKS
CHAMPAIGN      SUNNY     82  39  21 SW25      30.01F HX  80
DANVILLE*      MOSUNNY   79  45  29 S16G26    30.00F
RANTOUL*       MOSUNNY   82  43  25 SW16G24   30.00F HX  80
MATTOON        SUNNY     76  43  30 S17G24    30.03F
PARIS*         SUNNY     79  46  31 S18G24    30.05F
$$

ILZ079-100>102-031900-
SOUTHWEST ILLINOIS

CITY           SKY/WX    TMP DP  RH WIND       PRES   REMARKS
ALTON          MOSUNNY   79  41  25 S14       30.00F
BELLEVILLE     SUNNY     80  53  39 S9        30.00F HX  80
CAHOKIA*       SUNNY     81  51  35 S14       29.99F HX  80
SPARTA*        MOSUNNY   75  51  42 S13G21    30.04F
$$

ILZ064>066-069>071-074>076-080>082-084>086-088>090-092>094-031900-
SOUTH-CENTRAL ILLINOIS

CITY           SKY/WX    TMP DP  RH WIND       PRES   REMARKS
CARBONDALE     SUNNY     77  51  40 S15       30.06F
6HR MIN TEMP:  55; 6HR MAX TEMP:  77;

CAIRO*         SUNNY     78  47  32 S8G16     30.08F
EFFINGHAM*     SUNNY     78  36  22 S14G22    30.05F
MARION         MOSUNNY   77  50  38 S12G20    30.07F
MT. VERNON     SUNNY    N/A N/A N/A S14       30.05F
CENTRALIA*     SUNNY     80  45  29 S15       30.04F
SALEM*         SUNNY     81  43  26 S13       30.04F
METROPOLIS*    MOSUNNY   77  48  35 S9        30.08F
$$

ILZ067-068-072-073-078-083-087-091-031900-
SOUTHEAST ILLINOIS

CITY           SKY/WX    TMP DP  RH WIND       PRES   REMARKS
LAWRENCEVILLE  SUNNY     79  46  31 SW17      30.07F
FLORA*         SUNNY     78  45  31 SW10G21   30.05F
FAIRFIELD*     SUNNY     78  45  30 S12       30.05F
HARRISBURG*    SUNNY     77  46  32 S15       30.08F
ROBINSON*      SUNNY     78  45  30 S12       30.07F
CARMI*         SUNNY     78  40  25 S9G17     30.07S
$$

ABBREVIATIONS USED IN REMARKS
   TC - TEMPERATURE IN CELSIUS
  WCI - WIND CHILL INDEX
   HX - HEAT INDEX
  VSB - VISIBILITY
$$



USA.gov is the U.S. government's official web portal to all federal, state and local government web resources and services.